When you browse on this site, cookies collect data to enhance your experience and personalize the content and advertising you see.
Visit our Privacy Policy to learn more. By continuing to use the site, you agree to this use of cookies and data.
  • In Österreich
  • Länderverzeichnis
  • Für 7 Tage
  • Wassertemperatur
  • Wetterkarte
  • News
  • Widgets
  • user-avatar
    Anmelden

    Stündliche Wetter Nemocón

    Heute, 26 Januar, Sonntag

    Zeit Temperatur Niederschläge Wind Luftdruck Luftfeuchtigkeit
    00:00 +11°C° 0 mm 0 m/S 548 mmHg 96%
    01:00 +11°C° 0 mm 0 m/S 547 mmHg 95%
    02:00 +11°C° 0 mm 0 m/S 547 mmHg 95%
    03:00 +11°C° 0 mm 0 m/S 547 mmHg 94%
    04:00 +11°C° 0 mm 0 m/S 546 mmHg 94%
    05:00 +11°C° 0 mm 0 m/S 547 mmHg 94%
    06:00 +11°C° 0 mm 0 m/S 547 mmHg 93%
    07:00 +11°C° 0 mm 0 m/S 548 mmHg 93%
    08:00 +13°C° 0.1 mm 0 m/S 549 mmHg 88%
    09:00 +15°C° 0.1 mm 1 m/S 550 mmHg 84%
    10:00 +16°C° 0.1 mm 1 m/S 551 mmHg 79%
    11:00 +18°C° 0.2 mm 1 m/S 550 mmHg 77%
    12:00 +18°C° 0.2 mm 1 m/S 550 mmHg 75%
    13:00 +19°C° 0.2 mm 1 m/S 550 mmHg 72%
    14:00 +18°C° 0.4 mm 1 m/S 549 mmHg 76%
    15:00 +16°C° 0.4 mm 1 m/S 548 mmHg 79%
    16:00 +16°C° 0.4 mm 1 m/S 548 mmHg 83%
    17:00 +15°C° 0.5 mm 1 m/S 547 mmHg 87%
    18:00 +13°C° 0.5 mm 0 m/S 547 mmHg 91%
    19:00 +12°C° 0.5 mm 0 m/S 547 mmHg 94%
    20:00 +12°C° 0.3 mm 0 m/S 548 mmHg 95%
    21:00 +12°C° 0.3 mm 0 m/S 548 mmHg 96%
    22:00 +12°C° 0.3 mm 0 m/S 548 mmHg 96%
    23:00 +12°C° 0.3 mm 0 m/S 548 mmHg 96%

    Morgen, 27 Januar, Montag

    Zeit Temperatur Niederschläge Wind Luftdruck Luftfeuchtigkeit
    00:00 +12°C° 0.3 mm 0 m/S 548 mmHg 97%
    01:00 +11°C° 0.3 mm 0 m/S 547 mmHg 97%
    02:00 +11°C° 0.4 mm 0 m/S 547 mmHg 97%
    03:00 +11°C° 0.4 mm 0 m/S 547 mmHg 97%
    04:00 +11°C° 0.4 mm 0 m/S 547 mmHg 96%
    05:00 +11°C° 0.4 mm 0 m/S 547 mmHg 96%
    06:00 +11°C° 0.4 mm 0 m/S 548 mmHg 96%
    07:00 +11°C° 0.4 mm 0 m/S 548 mmHg 95%
    08:00 +12°C° 0.3 mm 0 m/S 549 mmHg 93%
    09:00 +13°C° 0.3 mm 0 m/S 549 mmHg 90%
    10:00 +13°C° 0.3 mm 0 m/S 550 mmHg 87%
    11:00 +16°C° 0.5 mm 1 m/S 550 mmHg 82%
    12:00 +18°C° 0.5 mm 1 m/S 550 mmHg 78%
    13:00 +19°C° 0.5 mm 1 m/S 550 mmHg 73%
    14:00 +19°C° 1 mm 1 m/S 549 mmHg 77%
    15:00 +18°C° 1 mm 1 m/S 548 mmHg 80%
    16:00 +15°C° 1 mm 0 m/S 548 mmHg 83%
    17:00 +14°C° 0.6 mm 0 m/S 547 mmHg 87%
    18:00 +13°C° 0.6 mm 0 m/S 547 mmHg 91%
    19:00 +11°C° 0.6 mm 0 m/S 547 mmHg 95%
    20:00 +11°C° 0.2 mm 0 m/S 547 mmHg 96%
    21:00 +11°C° 0.2 mm 0 m/S 547 mmHg 96%
    22:00 +11°C° 0.2 mm 0 m/S 548 mmHg 96%
    23:00 +11°C° 0.1 mm 0 m/S 547 mmHg 96%

    übermorgen, 28 Januar, Dienstag

    Zeit Temperatur Niederschläge Wind Luftdruck Luftfeuchtigkeit
    00:00 +11°C° 0.1 mm 0 m/S 547 mmHg 96%
    01:00 +10°C° 0.1 mm 0 m/S 547 mmHg 96%
    02:00 +10°C° 0 mm 0 m/S 546 mmHg 96%
    03:00 +10°C° 0 mm 0 m/S 546 mmHg 96%
    04:00 +10°C° 0 mm 0 m/S 546 mmHg 96%
    05:00 +10°C° 0 mm 0 m/S 546 mmHg 96%
    06:00 +10°C° 0 mm 0 m/S 547 mmHg 95%
    07:00 +11°C° 0 mm 0 m/S 548 mmHg 94%
    08:00 +13°C° 0 mm 0 m/S 549 mmHg 86%
    09:00 +15°C° 0 mm 0 m/S 550 mmHg 79%
    10:00 +19°C° 0 mm 1 m/S 551 mmHg 71%
    11:00 +19°C° 0.2 mm 1 m/S 551 mmHg 68%
    12:00 +20°C° 0.2 mm 1 m/S 550 mmHg 65%
    13:00 +20°C° 0.2 mm 1 m/S 550 mmHg 62%
    14:00 +19°C° 0.5 mm 1 m/S 549 mmHg 68%
    15:00 +19°C° 0.5 mm 1 m/S 548 mmHg 73%
    16:00 +18°C° 0.5 mm 1 m/S 547 mmHg 79%
    17:00 +15°C° 0.3 mm 1 m/S 547 mmHg 85%
    18:00 +13°C° 0.3 mm 0 m/S 547 mmHg 90%
    19:00 +11°C° 0.3 mm 0 m/S 546 mmHg 95%
    20:00 +11°C° 0.1 mm 0 m/S 546 mmHg 96%
    21:00 +11°C° 0.1 mm 0 m/S 547 mmHg 96%
    22:00 +12°C° 0.1 mm 0 m/S 547 mmHg 96%
    23:00 +11°C° 0.1 mm 0 m/S 547 mmHg 96%

    29 Januar, Mittwoch

    Zeit Temperatur Niederschläge Wind Luftdruck Luftfeuchtigkeit
    00:00 +11°C° 0.1 mm 0 m/S 547 mmHg 96%
    01:00 +11°C° 0.1 mm 0 m/S 546 mmHg 97%
    02:00 +11°C° 0.1 mm 0 m/S 546 mmHg 96%
    03:00 +11°C° 0.1 mm 0 m/S 546 mmHg 96%
    04:00 +11°C° 0.1 mm 0 m/S 546 mmHg 96%
    05:00 +11°C° 0 mm 0 m/S 546 mmHg 95%
    06:00 +11°C° 0 mm 0 m/S 547 mmHg 95%
    07:00 +11°C° 0 mm 0 m/S 547 mmHg 94%
    08:00 +13°C° 0 mm 0 m/S 549 mmHg 85%
    09:00 +15°C° 0 mm 0 m/S 550 mmHg 76%
    10:00 +18°C° 0 mm 0 m/S 551 mmHg 68%
    11:00 +20°C° 0.5 mm 1 m/S 551 mmHg 68%
    12:00 +20°C° 0.5 mm 1 m/S 550 mmHg 69%
    13:00 +20°C° 0.5 mm 1 m/S 549 mmHg 69%
    14:00 +19°C° 1.1 mm 1 m/S 549 mmHg 74%
    15:00 +18°C° 1.1 mm 1 m/S 548 mmHg 78%
    16:00 +18°C° 1.1 mm 1 m/S 547 mmHg 82%
    17:00 +15°C° 0.8 mm 1 m/S 547 mmHg 86%
    18:00 +13°C° 0.8 mm 0 m/S 546 mmHg 91%
    19:00 +12°C° 0.8 mm 0 m/S 546 mmHg 95%
    20:00 +11°C° 0.2 mm 0 m/S 546 mmHg 95%
    21:00 +11°C° 0.2 mm 0 m/S 546 mmHg 95%
    22:00 +11°C° 0.2 mm 0 m/S 547 mmHg 95%
    23:00 +11°C° 0 mm 0 m/S 546 mmHg 95%

    30 Januar, Donnerstag

    Zeit Temperatur Niederschläge Wind Luftdruck Luftfeuchtigkeit
    00:00 +10°C° 0 mm 0 m/S 546 mmHg 95%
    01:00 +10°C° 0 mm 0 m/S 546 mmHg 95%
    02:00 +10°C° 0 mm 0 m/S 545 mmHg 95%
    03:00 +10°C° 0 mm 0 m/S 545 mmHg 95%
    04:00 +10°C° 0 mm 0 m/S 545 mmHg 95%
    05:00 +10°C° 0 mm 0 m/S 546 mmHg 94%
    06:00 +10°C° 0 mm 0 m/S 546 mmHg 94%
    07:00 +10°C° 0 mm 0 m/S 547 mmHg 93%
    08:00 +12°C° 0 mm 0 m/S 548 mmHg 85%
    09:00 +15°C° 0 mm 0 m/S 549 mmHg 77%
    10:00 +19°C° 0 mm 1 m/S 551 mmHg 69%
    11:00 +19°C° 0.2 mm 1 m/S 550 mmHg 67%
    12:00 +20°C° 0.2 mm 1 m/S 550 mmHg 65%
    13:00 +20°C° 0.2 mm 1 m/S 550 mmHg 63%
    14:00 +19°C° 0.6 mm 1 m/S 549 mmHg 68%
    15:00 +19°C° 0.6 mm 1 m/S 548 mmHg 72%
    16:00 +18°C° 0.6 mm 1 m/S 547 mmHg 77%
    17:00 +16°C° 0.4 mm 1 m/S 547 mmHg 83%
    18:00 +14°C° 0.4 mm 1 m/S 546 mmHg 89%
    19:00 +13°C° 0.4 mm 1 m/S 546 mmHg 94%
    20:00 +12°C° 0.1 mm 1 m/S 546 mmHg 95%
    21:00 +12°C° 0.1 mm 1 m/S 546 mmHg 96%
    22:00 +11°C° 0.1 mm 1 m/S 546 mmHg 96%
    23:00 +11°C° 0 mm 1 m/S 546 mmHg 95%

    31 Januar, Freitag

    Zeit Temperatur Niederschläge Wind Luftdruck Luftfeuchtigkeit
    00:00 +11°C° 0 mm 1 m/S 546 mmHg 94%
    01:00 +11°C° 0 mm 1 m/S 546 mmHg 94%
    02:00 +11°C° 0 mm 1 m/S 545 mmHg 93%
    03:00 +10°C° 0 mm 1 m/S 545 mmHg 93%
    04:00 +10°C° 0 mm 1 m/S 544 mmHg 92%
    05:00 +10°C° 0 mm 1 m/S 545 mmHg 91%
    06:00 +10°C° 0 mm 1 m/S 545 mmHg 91%
    07:00 +10°C° 0 mm 1 m/S 546 mmHg 90%
    08:00 +12°C° 0 mm 1 m/S 547 mmHg 76%
    09:00 +15°C° 0 mm 1 m/S 549 mmHg 63%
    10:00 +17°C° 0 mm 2 m/S 550 mmHg 50%
    11:00 +18°C° 0 mm 2 m/S 550 mmHg 47%
    12:00 +19°C° 0 mm 3 m/S 550 mmHg 44%
    13:00 +20°C° 0 mm 3 m/S 550 mmHg 41%
    14:00 +20°C° 0 mm 3 m/S 549 mmHg 46%
    15:00 +19°C° 0 mm 3 m/S 549 mmHg 50%
    16:00 +18°C° 0 mm 3 m/S 548 mmHg 54%
    17:00 +16°C° 0 mm 3 m/S 547 mmHg 66%
    18:00 +13°C° 0 mm 2 m/S 546 mmHg 77%
    19:00 +11°C° 0 mm 1 m/S 545 mmHg 88%
    20:00 +11°C° 0 mm 1 m/S 545 mmHg 90%
    21:00 +10°C° 0 mm 1 m/S 545 mmHg 91%
    22:00 +9°C° 0 mm 1 m/S 546 mmHg 93%
    23:00 +9°C° 0 mm 1 m/S 545 mmHg 93%
    Mehr zeigen